Weather History for KVUO - August, 2013

Change the Weather History Date:

Friday, August 2, 2013

  Actual Average Record
Temperature  
Mean Temperature 66 °F 70 °F  
Max Temperature 72 °F 82 °F 103 °F (1939)
Min Temperature 60 °F 58 °F 47 °F (2002)
Degree Days  
Heating Degree Days 0    
Month to date heating degree days 3  
Since 1 June heating degree days 68  
Since 1 July heating degree days 12  
Cooling Degree Days 1    
Month to date cooling degree days 1  
Year to date cooling degree days 205  
Since 1 June cooling degree days 193  
Growing Degree Days 16 (Base 50)    
Moisture  
Dew Point 54 °F    
Average Humidity 67    
Maximum Humidity 84    
Minimum Humidity 49    
Precipitation  
Precipitation 0.00 in 0.01 in 0.50 in (1956)
Month to date precipitation 0.04 0.02  
Year to date precipitation 15.02 21.08  
Snow  
Snow 0.00 in - - ()
Month to date snowfall 0.0  
Since 1 June snowfall 0.0  
Snow Depth 0.00 in    
Sea Level Pressure  
Sea Level Pressure 30.12 in    
Wind  
Wind Speed 2 mph (NW)    
Max Wind Speed 10 mph    
Max Gust Speed 13 mph    
Visibility 10 miles    
Events      
T = Trace of Precipitation, MM = Missing Value Source: NWS Daily Summary

Daily Weather History Graph

Daily Weather History Graph

Search for Another Location

Airport or City:

Trip Planner

Search our weather history database for the weather conditions in past years. The results will help you decide how hot, cold, wet, or windy it might be!

Date:

Astronomy

Aug. 02, 2013 Rise Set
Actual Time 5:55 AM PDT 8:37 PM PDT
Civil Twilight 5:21 AM PDT 9:11 PM PDT
Nautical Twilight 4:38 AM PDT 9:53 PM PDT
Astronomical Twilight 3:48 AM PDT 10:43 PM PDT
Moon 2:18 AM PDT (8/2) 5:41 PM PDT (8/2)
Length of Visible Light 15h 49m
Length of Day
14h 41m
Waning Crescent, 15% of the Moon is Illuminated
Aug 2
Waning Crescent
Aug 6
New
Aug 14
First Quarter
Aug 20
Full
Aug 28
Last Quarter

Hourly Weather History & Observations

Time (PDT) Temp. Dew Point Humidity Pressure Visibility Wind Dir Wind Speed Gust Speed Precip Events Conditions
12:53 AM 62.1 °F 55.0 °F 78% 30.11 in 10.0 mi Calm Calm - N/A   Overcast
1:31 AM 62.6 °F 55.4 °F 77% 30.11 in 10.0 mi Calm Calm - N/A   Overcast
1:53 AM 62.1 °F 55.9 °F 80% 30.12 in 10.0 mi Calm Calm - N/A   Overcast
2:35 AM 62.6 °F 55.4 °F 77% 30.11 in 10.0 mi Calm Calm - N/A   Overcast
2:53 AM 61.0 °F 55.9 °F 83% 30.11 in 10.0 mi ENE 4.6 mph - N/A   Overcast
3:53 AM 61.0 °F 55.9 °F 83% 30.11 in 10.0 mi Calm Calm - N/A   Overcast
4:53 AM 60.1 °F 53.1 °F 78% 30.11 in 10.0 mi Calm Calm - N/A   Overcast
5:53 AM 60.1 °F 53.1 °F 78% 30.12 in 10.0 mi Calm Calm - N/A   Overcast
6:53 AM 60.1 °F 53.1 °F 78% 30.12 in 10.0 mi South 3.5 mph - N/A   Overcast
7:53 AM 61.0 °F 54.0 °F 78% 30.14 in 10.0 mi Calm Calm - N/A   Overcast
8:53 AM 62.1 °F 53.1 °F 72% 30.15 in 10.0 mi Calm Calm - N/A   Overcast
9:53 AM 63.0 °F 53.1 °F 70% 30.15 in 10.0 mi WSW 3.5 mph - N/A   Overcast
10:53 AM 64.0 °F 53.1 °F 67% 30.14 in 10.0 mi Calm Calm - N/A   Overcast
11:53 AM 66.0 °F 52.0 °F 60% 30.14 in 10.0 mi Calm Calm - N/A   Overcast
12:53 PM 68.0 °F 51.1 °F 55% 30.13 in 10.0 mi Calm Calm - N/A   Overcast
1:53 PM 69.1 °F 51.1 °F 53% 30.12 in 10.0 mi West 5.8 mph - N/A   Overcast
2:53 PM 70.0 °F 51.1 °F 51% 30.12 in 10.0 mi NNW 3.5 mph - N/A   Overcast
3:53 PM 71.1 °F 51.1 °F 49% 30.11 in 10.0 mi WNW 5.8 mph - N/A   Overcast
4:53 PM 71.1 °F 52.0 °F 51% 30.11 in 10.0 mi North 5.8 mph - N/A   Overcast
5:53 PM 70.0 °F 52.0 °F 53% 30.10 in 10.0 mi NW 4.6 mph - N/A   Overcast
6:53 PM 69.1 °F 53.1 °F 57% 30.10 in 10.0 mi Calm Calm - N/A   Overcast
7:53 PM 69.1 °F 53.1 °F 57% 30.10 in 10.0 mi North 4.6 mph - N/A   Overcast
8:53 PM 66.9 °F 55.0 °F 66% 30.10 in 10.0 mi Calm Calm - N/A   Overcast
9:53 PM 66.0 °F 55.9 °F 70% 30.11 in 10.0 mi North 3.5 mph - N/A   Overcast
10:53 PM 64.0 °F 55.0 °F 73% 30.11 in 10.0 mi Calm Calm - N/A   Clear
11:53 PM 63.0 °F 55.0 °F 75% 30.11 in 10.0 mi Variable 4.6 mph - N/A   Clear